星链-37425(STARLINK-37425)

导读

STARLINK-37425(NORAD编号68815)是SpaceX星链互联网星座中的一颗低轨通信卫星,隶属于SpaceX主导的星链项目,该项目旨在构建全球覆盖的低成本、高性能天基互联网系统。 作为星链卫星组网的组成部分,它运行在近地轨道,为全球范围内偏远地区、移动场景及传统网络覆盖不足区域提供宽带互联网接入服务,支持流媒体、视频通话、在线游戏等多种应用需求,助力星链完成全球通信网络的布局,推动全球互联网络覆盖的进一步完善。

基本信息
目录编号:
68815
目录名称:
STARLINK-37425
国际标识:
2026-089P
轨道中心:
EARTH
卫星名称:
星链-37425
卫星全名:
星链-37425(STARLINK-37425)
卫星状态:
在轨 (已飞行134 天)
发射日期:
2026-04-23 UTC
国别 :
美国 (US)
星等 :
--
轨道信息
数据来源 国际轨道数据 AOE轨道数据
星历时间 2026-09-03T15:11:14+0800
1天前
查看轨道信息
2026-09-03T08:00:00+0800
1天前
查看轨道信息
半长轴 6843.651km 6843.625km
偏心率 0.0001811 0.0001714
轨道倾角 97.285° 97.287°
近地点辐角 93.329° 88.412°
升交点赤经 92.317° 92.022°
平近点角 266.816° 59.660°
近地点 464.274km 464.315km
远地点 466.754km 466.661km
周期 93.906分钟 93.905分钟
每日圈数 15.334549 15.334637
详细信息
固有亮度:
5
最大亮度:
2.5
卫星平台:
Starlink V1.0
覆盖范围:
全球
运营商:
太空探索技术公司
运营商所在国:
美国
制造商(研发单位):
太空探索技术公司
制造商所在国:
美国
使用方式:
暂无
卫星简介
Starlink 计划是 SpaceX 推出的全球卫星互联网项目,通过发射低轨道卫星,为全球尤其是偏远地区提供高速、低延迟的互联网服务。自 2019 年起,Starlink 已部署数千颗卫星,旨在缩小全球数字鸿沟,推动互联网普及。该项目还为军事、航空等行业提供通信支持,带来广泛经济效益。
2D轨道图
3D轨道图
轨道高度分析图
轨道倾角分析图
轨道综合分析图
查看轨道综合分析图
交会数据列表
事件ID 空间交会对象 最接近时刻(TCA) 交会距离 交会风险概率(CRP) 交会风险指数(CRI) 操作
CDM_260905-012604-735406-881521
2026-09-05T
01:26:14+0000
0.737 km
远距离
7.337965E-5 中风险 0.72
CDM_260830-190406-399306-881522
OBJECT M (63993)
2026-08-30T
19:04:19+0000
1.453 km
极远距离
7.073607E-6 低风险 0.52
CDM_260904-110905-175306-881521
2026-09-04T
11:09:08+0000
2.494 km
极远距离
1.643692E-6 低风险 0.39
CDM_260831-175306-563206-881522
2026-08-31T
17:53:11+0000
2.861 km
极远距离
1.337494E-6 低风险 0.38
CDM_260904-170505-227206-881521
2026-09-04T
17:05:00+0000
2.875 km
极远距离
1.153003E-6 低风险 0.36
CDM_260906-191004-843206-881521
2026-09-06T
19:10:59+0000
2.787 km
极远距离
1.130589E-6 低风险 0.36